Location: Albany
(35.0000°S, 118.0000°E)
Time: 14:00:37
(UTC-04:00)

Vanguard 3 - Visible Passes

Search period start: 20 September 2014 00:00
Search period end: 30 September 2014 00:00
Orbit: 508 x 3279 km, 33.3° (Epoch: 18 September)

Date Brightness Start Highest point End Pass type
(mag) Time Alt. Az. Time Alt. Az. Time Alt. Az.
20 Sep 9.2 07:27:57 10° NNW 07:39:09 30° NNE 07:41:55 27° NE visible
20 Sep 9.9 09:42:24 10° WNW 09:46:42 24° NW 09:46:42 24° NW visible
21 Sep 9.9 06:15:11 10° NNW 06:26:02 23° NNE 06:33:44 10° ENE visible
21 Sep 8.8 08:28:08 10° NW 08:39:18 47° N 08:39:18 47° N visible
21 Sep 10.6 10:44:01 10° WNW 10:44:05 10° WNW 10:44:05 10° WNW visible
22 Sep 9.2 07:14:03 10° NW 07:27:12 38° NNE 07:31:52 26° ENE visible
22 Sep 9.3 09:29:33 10° WNW 09:36:39 37° WNW 09:36:39 37° WNW visible
23 Sep 8.5 08:14:51 10° NW 08:28:08 56° NNE 08:29:11 54° NE visible
23 Sep 10.2 10:31:30 10° W 10:33:57 18° W 10:33:57 18° W visible
24 Sep 9.3 07:00:19 10° NW 07:15:08 46° NNE 07:21:40 21° E visible
24 Sep 8.8 09:16:42 10° WNW 09:26:26 54° NW 09:26:26 54° NW visible
25 Sep 8.5 08:01:37 10° WNW 08:16:09 64° NNE 08:18:53 49° ENE visible
25 Sep 9.9 10:18:56 10° W 10:23:39 26° W 10:23:39 26° W visible
26 Sep 9.4 06:46:43 10° NW 07:02:57 54° NNE 07:11:17 16° E visible
26 Sep 8.5 09:03:49 10° WNW 09:16:03 72° NW 09:16:03 72° NW visible
27 Sep 8.8 07:48:26 10° WNW 08:04:05 71° NNE 08:08:24 39° E visible
27 Sep 9.5 10:06:16 10° W 10:13:10 36° W 10:13:10 36° W visible
28 Sep 9.5 06:33:14 10° NW 06:50:39 61° NNE 07:00:43 12° E visible
28 Sep 8.3 08:50:55 10° W 09:05:05 82° N 09:05:29 80° NE visible
28 Sep 10.4 11:08:30 10° W 11:10:14 15° W 11:10:14 15° W visible
29 Sep 9.0 07:35:17 10° WNW 07:51:56 77° N 07:57:45 31° E visible
29 Sep 9.1 09:53:32 10° W 10:02:30 47° W 10:02:30 47° W visible
